Home   Weather   Palikir   Past weeks
Flag for Micronesia

Past Weather in Palikir, Pohnpei, Micronesia — Yesterday and Last 2 Weeks

Now
76 °F

Passing clouds.


Feels Like: 75 °F
Forecast: 88 / 76 °F
Wind: 3 mph from Southeast

Location: Pohnpei

Current Time: Oct 24, 2019 at 5:06:16 am

Latest Report: Oct 24, 2019 at 3:51 am


Visibility: 15 mi

Pressure: 29.81 "Hg

Humidity: 92%

Dew Point: 73 °F

Location of PalikirLocation

Past Weather in Palikir — Graph

°F

Palikir Temperature Yesterday

Maximum temperature yesterday: 91 °F (at 11:51 am)
Minimum temperature yesterday: 75 °F (at 6:53 am)
Average temperature yesterday: 82 °F

High & Low Weather Summary for the Past Weeks

 TemperatureHumidityPressure
High91 °F (Oct 13, 10:52 am)100% (Oct 9, 11:10 pm)29.93 "Hg (Oct 9, 11:10 pm)
Low74 °F (Oct 17, 12:50 am)50% (Oct 17, 10:55 am)29.72 "Hg (Oct 10, 3:50 pm)
Average81 °F86%29.84 "Hg
* Reported Oct 9 3:53 am — Oct 24 3:51 am, Palikir. Weather by CustomWeather, © 2019

Note: Actual official high and low records may vary slightly from our data, if they occured in-between our weather recording intervals... More about our weather records

Advertising

Palikir Weather History for the Previous 24 Hours

Scroll right to see more
 ConditionsComfort  
Time TempWeatherWind HumidityBarometerVisibility
3:51 am
Thu, Oct 24
76 °FPassing clouds.3 mph92%29.81 "Hg15 mi
2:54 am76 °FPartly cloudy.3 mph93%29.82 "Hg15 mi
1:54 am76 °FPassing clouds.3 mph92%29.82 "Hg15 mi
12:51 am76 °FPassing clouds.5 mph93%29.84 "Hg15 mi
11:52 pm
Wed, Oct 23
77 °FPassing clouds.No wind87%29.84 "Hg15 mi
10:50 pm77 °FPassing clouds.6 mph87%29.85 "Hg15 mi
9:53 pm77 °FPassing clouds.3 mph87%29.86 "Hg15 mi
8:53 pm78 °FClear.3 mph87%29.86 "Hg15 mi
7:50 pm81 °FClear.3 mph79%29.85 "Hg15 mi
6:53 pm81 °FPassing clouds.3 mph79%29.83 "Hg15 mi
5:54 pm84 °FPartly sunny.5 mph77%29.80 "Hg15 mi
4:50 pm85 °FMostly cloudy.6 mph77%29.78 "Hg15 mi
3:51 pm90 °FBroken clouds.3 mph65%29.76 "Hg15 mi
2:50 pm90 °FMore clouds than sun.5 mph68%29.76 "Hg15 mi
1:53 pm91 °FMostly cloudy.3 mph66%29.78 "Hg15 mi
12:51 pm91 °FCloudy.5 mph67%29.79 "Hg15 mi
11:51 am91 °FMore clouds than sun.3 mph68%29.83 "Hg15 mi
10:50 am90 °FMostly cloudy.5 mph68%29.85 "Hg15 mi
9:50 am88 °FMore clouds than sun.6 mph69%29.85 "Hg15 mi
8:50 am86 °FBroken clouds.3 mph74%29.86 "Hg15 mi
7:53 am80 °FCloudy.No wind88%29.85 "Hg15 mi
7:35 am79 °FCloudy.No wind84%29.86 "Hg15 mi
6:53 am75 °FOvercast.3 mph96%29.84 "Hg15 mi
5:52 am75 °FPassing clouds.3 mph94%29.82 "Hg15 mi
Weather by CustomWeather, © 2019

See weather overview